Temperature
20 19 19 19 19 18 18 18 17 17 17 17 16 16 16 16 16 16 16 16 16 16 16 16 15 15 15 15 15 16 15 15 16 16 16 16 15 15 15 15 15 15 14
20 19 19 19 19 18 18 18 17 17 17 16 16 16 16 16 15 15 15 15 15 16 15 15 15 15 15 15 15 15 15 15 15 16 16 15 15 15 15 15 15 15 14
20 19 19 19 18 18 18 18 17 17 17 16 16 16 16 16 15 15 15 15 15 15 15 15 15 15 15 15 15 15 15 15 15 15 15 15 15 15 15 15 15 14 14
20 19 19 18 18 18 18 18 17 17 17 16 16 16 16 16 15 15 15 15 15 15 15 15 15 15 15 15 15 15 15 15 15 15 15 15 15 15 15 14 14 14 14
20 20 19 19 18 18 18 18 17 17 17 16 16 16 16 16 16 15 15 15 15 15 15 15 15 15 15 15 15 15 15 15 15 15 15 15 15 15 15 14 14 14 14
21 20 19 19 18 18 17 17 17 17 17 16 16 16 16 16 15 15 15 15 15 15 15 15 15 15 15 15 15 15 15 15 15 15 15 15 15 15 15 14 14 14 14
21 20 19 18 18 18 17 17 17 17 17 16 16 16 16 16 15 15 15 15 15 15 15 15 15 15 15 14 14 14 14 14 14 14 14 14 14 14 14 14 14 14 14
21 20 19 18 18 18 17 17 17 17 17 16 16 16 16 16 16 15 15 15 15 15 15 15 15 14 14 14 14 14 14 14 14 14 14 14 14 14 14 14 14 14 14
20 20 19 18 18 18 17 17 17 17 16 16 16 16 16 16 16 15 15 15 15 15 15 15 14 14 14 14 14 14 14 14 14 14 14 14 14 14 14 14 13 13 13
20 20 19 18 18 18 17 17 17 17 16 16 16 16 16 16 16 15 15 15 15 15 15 15 14 14 14 14 14 14 14 14 14 14 14 13 13 13 13 13 13 13 13
21 20 19 19 18 18 17 17 17 17 16 16 16 16 16 15 15 15 15 15 15 15 14 14 14 14 14 14 14 14 14 14 13 13 13 13 13 13 13 13 13 13 13
21 20 19 19 18 17 17 17 17 17 17 16 16 16 16 15 15 15 15 15 15 15 14 14 14 14 14 14 14 13 13 13 13 13 13 13 13 13 12 12 12 12 12
21 20 19 18 18 18 17 17 17 17 16 16 16 16 15 15 15 15 15 15 15 14 14 14 14 14 14 14 13 13 13 13 13 13 13 13 13 13 12 12 12 12 12
20 20 19 18 18 18 17 17 17 17 17 16 16 16 15 15 15 15 15 14 14 14 14 14 14 13 13 13 13 13 13 13 13 13 13 13 12 12 12 12 12 12 11
20 20 19 18 18 18 17 17 17 17 16 16 16 16 15 15 15 15 15 14 14 14 14 14 13 13 13 13 13 13 13 13 13 13 12 12 12 12 12 12 12 11 11
20 19 19 18 18 18 17 17 17 17 16 16 16 16 15 15 15 15 14 14 14 14 14 14 13 13 13 13 13 13 13 12 12 12 12 12 12 12 12 11 11 11 11
20 19 19 18 18 18 17 17 17 17 16 16 16 16 15 15 15 15 14 14 14 14 13 13 13 13 13 13 13 12 12 12 12 12 12 12 11 11 11 11 11 11 10
20 19 19 18 18 18 17 17 17 16 16 16 16 16 15 15 15 15 14 14 14 14 13 13 13 13 13 13 12 12 12 12 12 11 11 11 11 11 11 11 11 10 10
20 19 19 18 18 18 17 17 16 16 16 16 16 15 15 15 15 14 14 14 14 14 13 13 13 13 13 12 12 12 12 12 11 11 11 11 11 11 10 10 10 10 9
20 19 19 19 18 18 17 17 16 16 16 16 15 15 15 15 15 14 14 14 14 13 13 13 13 12 12 12 12 12 12 11 11 11 11 11 10 10 10 10 10 9 9
19 19 19 18 18 18 17 17 16 16 16 15 15 15 15 15 15 14 14 14 13 13 13 12 12 12 12 12 12 12 11 11 11 11 10 10 10 10 10 9 9 9 9
19 18 18 18 18 17 17 17 16 16 15 15 15 15 14 14 14 14 14 13 13 13 12 12 12 12 12 12 11 11 11 11 11 10 10 10 10 9 9 9 9 8 8
18 18 18 17 17 17 17 17 16 16 15 15 15 14 14 14 14 14 13 13 13 13 12 12 12 12 11 11 11 11 11 11 10 10 10 9 9 9 9 8 8 8 8
18 17 17 17 17 16 16 16 16 16 15 15 14 14 14 13 13 13 13 13 13 12 12 12 12 11 11 11 11 11 11 10 10 10 9 9 9 8 8 8 8 7 7
17 17 17 16 16 16 16 16 15 15 15 14 14 14 13 13 13 13 13 13 13 12 12 12 12 11 11 11 11 10 10 10 10 9 9 9 8 8 7 7 7 7 6
17 16 16 16 16 16 15 15 15 15 14 14 13 13 13 13 13 13 12 12 12 12 12 11 11 11 11 11 10 10 10 9 9 9 8 8 8 7 7 7 6 6 6
Wind_Speed
9 9 8 7 7 6 8 7 7 5 4 3 3 3 3 3 3 5 8 9 10 9 7 4 5 5 5 5 5 4 4 3 3 3 2 3 4 4 4 4 4 6 8
10 9 8 7 7 7 7 7 6 6 5 3 3 3 3 3 4 4 7 9 9 9 7 5 4 4 4 5 5 4 3 3 3 2 2 2 3 3 4 3 4 5 6
13 11 9 7 7 7 6 6 7 6 5 4 3 3 3 2 3 4 3 5 7 8 8 7 5 4 4 4 5 5 5 4 4 4 3 2 1 1 3 4 5 5 4
12 11 10 9 7 7 6 6 6 6 6 5 3 4 3 2 3 3 2 3 6 6 7 7 6 4 4 4 4 4 4 4 3 3 4 3 2 1 1 2 4 5 5
12 12 11 10 8 7 6 6 6 6 5 5 4 3 3 3 3 3 3 3 4 5 6 5 5 4 4 4 4 5 5 4 3 3 3 4 4 3 2 1 2 3 3
11 11 11 10 8 7 6 6 6 5 5 5 5 5 4 4 4 3 3 3 3 3 4 4 5 5 4 4 4 4 5 4 4 4 4 3 3 3 3 2 1 2 1
11 11 11 10 8 8 7 6 6 5 4 5 5 6 5 4 4 3 3 3 3 2 2 3 4 4 4 5 4 4 4 4 4 5 4 4 3 3 3 3 2 1 1
11 11 12 10 9 9 8 7 7 5 4 4 4 5 5 3 3 3 3 3 3 3 3 4 5 5 5 5 4 4 4 4 4 5 4 4 4 4 3 2 2 2 2
12 11 11 11 10 10 8 7 7 6 5 4 4 4 4 4 4 3 3 3 3 3 3 4 4 4 5 5 4 4 4 4 5 4 5 4 4 4 4 4 3 2 2
12 12 11 11 10 9 8 7 7 7 6 6 5 5 5 4 4 4 4 4 4 3 3 4 4 4 4 4 4 3 3 4 3 3 5 4 3 4 4 4 4 4 2
12 12 11 10 10 10 8 7 7 7 6 6 6 6 5 4 3 4 4 4 4 3 3 4 4 3 3 3 3 3 3 4 4 4 4 4 4 4 4 4 4 4 3
10 11 11 11 10 10 9 8 7 7 6 6 6 6 6 5 4 4 5 4 4 3 3 4 4 3 3 3 3 3 3 3 4 4 4 4 4 5 4 4 4 4 3
10 10 11 11 10 10 9 9 8 8 7 6 6 6 6 5 4 5 4 4 4 4 4 4 4 4 3 3 3 3 3 3 4 5 5 5 5 5 4 4 4 4 4
10 10 10 10 9 9 9 8 8 8 8 7 7 6 6 5 5 5 4 4 4 4 4 4 4 4 3 4 3 3 2 3 4 5 5 5 5 5 4 5 4 4 4
10 10 10 10 9 9 8 8 8 8 9 8 7 6 6 6 5 4 4 4 3 3 4 5 4 4 4 3 3 2 2 3 4 4 5 5 7 8 6 5 4 4 3
10 10 11 10 10 9 8 7 9 9 9 8 7 7 7 6 5 5 5 5 4 3 4 5 5 4 3 4 6 4 3 3 3 3 3 4 5 6 7 8 7 5 3
10 10 10 10 11 10 9 8 9 9 9 8 8 7 7 6 5 5 5 5 4 3 4 4 5 5 4 4 5 5 3 3 3 3 3 3 4 5 3 4 5 5 5
10 10 9 9 9 10 10 9 8 9 9 9 8 7 7 7 6 5 5 4 4 4 4 4 4 5 4 4 4 3 2 2 3 3 3 3 3 4 3 3 3 2 3
8 8 9 9 9 10 10 9 9 8 8 9 9 8 8 7 6 6 5 4 4 4 4 4 4 4 3 3 3 2 1 2 2 2 3 3 3 6 6 3 3 3 3
7 8 8 9 9 9 10 10 9 8 8 8 8 8 8 7 7 6 5 4 4 4 5 4 4 4 4 4 3 2 1 1 1 2 2 4 4 5 5 3 2 3 4
6 7 8 7 8 9 10 9 9 8 8 8 8 8 8 8 7 6 5 5 4 4 4 5 4 4 5 5 4 3 1 1 1 1 1 1 3 3 3 3 2 3 4
7 7 7 6 7 9 10 9 8 8 8 8 8 8 8 8 7 6 5 5 5 5 4 4 3 3 4 4 4 4 3 1 1 1 1 1 1 1 2 2 4 6 6
7 6 6 7 6 7 8 9 8 9 9 8 8 8 8 7 7 7 6 5 5 4 4 4 3 2 3 3 5 5 3 2 1 1 1 0 1 1 2 3 4 4 2
7 6 7 7 6 6 7 8 9 9 10 9 9 8 8 7 6 5 5 5 4 4 4 4 4 3 3 3 3 3 2 2 1 1 1 2 2 2 2 3 3 2 2
6 6 7 7 7 7 7 8 9 9 9 9 8 7 7 7 6 5 4 4 4 5 5 4 4 4 3 3 4 4 3 2 2 1 1 1 1 1 2 2 2 2 2
6 6 6 7 7 8 8 7 8 9 9 8 7 6 6 6 6 6 4 4 4 5 5 5 5 3 5 5 5 4 3 2 1 1 1 1 1 1 2 2 2 2 2
Wind_Direction
152 143 143 147 145 134 124 122 124 117 104 94 96 87 74 70 62 55 48 45 41 34 51 45 43 44 43 33 37 37 29 24 42 49 43 52 64 73 67 58 53 58 58
150 149 154 155 147 133 129 130 121 110 96 82 94 102 91 87 85 60 48 47 45 31 45 50 55 53 47 32 35 39 26 14 33 56 59 54 25 21 71 72 64 55 54
158 158 160 149 139 140 136 136 130 123 117 111 88 91 76 69 90 92 67 53 59 43 34 41 51 53 58 42 39 36 35 20 5 33 57 77 67 359 32 62 65 59 44
156 157 156 151 151 146 142 142 133 131 134 132 125 125 123 114 103 107 113 91 72 61 42 41 48 54 59 57 42 43 35 35 12 10 27 51 81 87 54 25 55 63 59
159 159 160 158 160 152 149 142 137 139 135 129 122 124 121 121 108 103 103 93 75 69 57 41 46 53 55 57 56 52 43 42 30 26 21 20 24 27 85 65 33 46 53
161 159 157 154 155 145 143 140 140 132 140 154 148 138 128 118 109 97 102 99 88 72 67 55 56 58 54 56 53 54 51 46 39 36 40 38 33 14 44 58 58 76 47
161 157 153 152 152 147 148 147 144 147 164 164 149 135 135 132 125 123 106 100 93 76 71 64 61 58 52 59 54 51 50 46 43 44 37 33 30 31 42 45 20 43 74
157 155 155 155 156 155 158 159 155 157 160 156 141 136 138 132 116 114 115 106 98 90 70 72 69 62 56 62 56 57 44 48 46 42 39 34 22 27 40 50 40 22 24
159 158 157 158 159 159 163 165 159 157 163 160 133 124 129 121 129 134 111 105 104 103 87 86 84 69 61 58 56 61 47 48 41 36 42 41 28 26 24 28 48 67 36
162 160 161 162 161 157 162 166 163 162 166 157 145 130 124 122 128 123 117 113 111 104 102 92 93 78 67 72 61 60 43 56 54 54 49 39 33 27 27 23 26 48 66
164 163 162 160 158 157 165 168 164 163 161 153 143 140 135 127 134 125 120 116 114 117 114 105 102 91 77 77 73 68 54 50 47 51 57 43 41 34 29 22 23 35 56
162 160 159 158 160 162 168 170 169 163 156 152 146 143 135 135 147 130 126 124 126 130 120 113 110 107 93 79 73 69 56 60 54 50 55 52 49 36 30 26 24 24 34
158 156 157 160 162 165 170 173 169 162 153 146 141 138 142 143 136 122 126 135 135 132 119 114 103 90 81 74 67 70 48 57 60 55 51 48 51 40 27 30 25 14 20
157 159 157 159 161 165 169 171 166 154 149 150 146 143 142 136 135 135 137 132 128 127 125 114 104 97 81 63 51 49 54 63 65 67 66 59 54 45 29 32 20 20 17
160 159 160 161 163 166 169 168 157 151 149 148 147 148 142 136 137 136 133 117 108 109 110 106 99 87 78 51 43 36 56 74 81 80 82 77 74 63 53 44 24 21 21
166 164 164 163 168 168 165 159 156 155 152 153 151 142 141 137 137 136 126 117 111 111 112 113 105 92 83 56 49 42 31 54 76 92 98 97 81 69 56 49 42 29 27
166 166 169 170 170 169 168 166 160 155 156 152 142 142 142 136 140 138 124 126 129 119 111 109 110 105 87 68 52 43 47 57 54 59 71 65 64 63 52 27 20 13 19
165 168 172 172 170 167 166 165 160 159 159 150 144 143 140 141 141 135 136 140 130 123 118 109 112 116 107 90 75 57 53 78 69 55 58 73 63 46 45 30 14 1 0
163 165 168 167 168 165 164 161 160 157 154 148 151 152 149 147 145 146 151 146 136 130 129 122 122 119 112 103 86 62 65 97 87 69 52 65 69 39 38 34 3 348 334
150 156 159 160 161 162 159 158 159 159 157 153 153 150 148 149 152 151 150 143 139 143 136 135 141 141 137 135 123 108 95 109 110 96 79 70 74 48 38 34 358 337 325
141 144 150 153 158 157 155 159 158 161 155 148 144 144 149 154 150 146 146 142 143 146 147 150 154 145 140 149 145 136 134 111 94 102 97 84 83 62 29 7 339 322 324
134 137 141 143 146 150 156 158 156 151 143 145 146 149 155 157 150 146 148 149 149 155 158 152 149 135 138 142 151 150 150 123 105 94 104 113 81 51 337 326 322 333 339
135 134 138 139 140 146 151 150 147 145 144 147 150 151 152 148 148 153 156 158 159 162 166 159 159 152 144 143 142 152 159 154 162 153 131 279 294 297 300 304 319 333 328
139 141 143 147 149 148 144 145 143 144 146 150 153 154 155 149 145 147 151 155 165 168 170 169 166 161 153 147 152 165 171 175 203 260 265 273 276 287 297 308 309 305 292
145 151 155 158 155 145 141 141 146 150 152 152 155 155 149 147 145 141 147 159 167 174 174 175 170 166 173 176 163 165 174 180 201 215 239 254 271 283 290 294 285 280 297
148 151 157 158 155 149 148 148 151 157 159 160 161 159 155 152 150 143 120 79 120 135 141 146 153 150 150 148 143 145 148 160 188 180 211 236 245 249 264 278 291 295 291
Height
1540 1543 1545 1548 1550 1552 1553 1555 1556 1558 1559 1560 1560 1561 1562 1562 1562 1563 1562 1562 1562 1562 1563 1562 1562 1562 1561 1561 1561 1561 1561 1561 1561 1562 1562 1563 1563 1563 1563 1563 1562 1562 1561
1539 1542 1545 1547 1550 1552 1553 1555 1557 1558 1559 1560 1561 1562 1562 1563 1563 1563 1563 1563 1563 1563 1564 1563 1563 1563 1563 1562 1562 1562 1562 1563 1563 1563 1563 1564 1566 1565 1565 1564 1564 1563 1563
1537 1541 1544 1546 1549 1551 1553 1555 1556 1558 1559 1560 1561 1562 1563 1564 1564 1564 1564 1564 1564 1564 1564 1564 1564 1564 1564 1564 1564 1563 1563 1564 1564 1564 1565 1565 1565 1566 1567 1566 1565 1565 1564
1535 1539 1542 1545 1548 1551 1553 1555 1556 1558 1559 1560 1561 1562 1563 1564 1565 1565 1565 1565 1566 1565 1565 1565 1565 1565 1565 1565 1565 1565 1565 1565 1565 1565 1565 1566 1566 1567 1567 1568 1567 1566 1565
1533 1537 1540 1544 1547 1550 1552 1554 1556 1558 1559 1560 1561 1562 1563 1564 1565 1566 1566 1566 1566 1566 1566 1566 1566 1566 1566 1566 1566 1566 1566 1566 1566 1566 1567 1567 1567 1567 1568 1568 1568 1567 1567
1531 1535 1539 1542 1545 1548 1551 1553 1555 1557 1559 1560 1561 1562 1563 1564 1565 1566 1567 1567 1567 1567 1567 1567 1567 1567 1567 1567 1567 1567 1567 1568 1568 1568 1568 1568 1568 1568 1568 1568 1568 1568 1568
1529 1533 1537 1540 1544 1547 1550 1552 1554 1556 1558 1560 1561 1562 1563 1564 1565 1566 1567 1567 1567 1568 1568 1568 1568 1568 1568 1569 1568 1569 1569 1569 1569 1569 1569 1569 1569 1569 1569 1569 1568 1568 1568
1527 1531 1535 1538 1542 1545 1548 1551 1553 1555 1557 1559 1560 1561 1563 1564 1565 1566 1567 1567 1568 1568 1569 1569 1569 1569 1569 1570 1569 1570 1570 1570 1570 1570 1570 1570 1570 1570 1570 1570 1569 1568 1569
1525 1529 1533 1537 1540 1543 1546 1549 1551 1554 1556 1558 1559 1561 1562 1563 1564 1566 1567 1567 1568 1568 1569 1569 1569 1570 1570 1570 1570 1571 1571 1571 1571 1571 1571 1571 1571 1571 1570 1570 1570 1570 1569
1523 1527 1531 1535 1539 1542 1545 1548 1550 1552 1554 1557 1558 1560 1561 1562 1564 1565 1566 1567 1567 1568 1569 1569 1570 1570 1571 1571 1571 1571 1572 1572 1572 1572 1572 1571 1571 1571 1571 1570 1570 1570 1569
1521 1525 1529 1533 1537 1540 1543 1546 1549 1551 1553 1555 1557 1559 1560 1562 1563 1564 1565 1566 1567 1568 1569 1570 1570 1571 1571 1572 1572 1572 1572 1572 1573 1572 1572 1572 1572 1571 1571 1571 1570 1570 1569
1519 1523 1527 1531 1535 1538 1542 1545 1547 1549 1552 1554 1556 1558 1559 1561 1562 1564 1565 1566 1567 1568 1569 1569 1570 1571 1572 1572 1572 1572 1573 1573 1573 1573 1573 1572 1572 1571 1571 1571 1570 1569 1569
1517 1521 1525 1529 1532 1536 1539 1543 1545 1547 1550 1552 1555 1557 1558 1560 1562 1563 1564 1566 1567 1568 1569 1569 1570 1571 1571 1572 1572 1573 1573 1573 1573 1573 1573 1572 1572 1572 1571 1570 1570 1569 1568
1516 1519 1523 1527 1530 1534 1537 1540 1543 1546 1548 1551 1553 1555 1557 1559 1561 1562 1564 1565 1566 1567 1568 1569 1569 1570 1571 1572 1572 1572 1573 1573 1573 1573 1573 1572 1572 1571 1571 1570 1569 1568 1568
1514 1518 1521 1525 1528 1532 1535 1538 1541 1544 1546 1549 1551 1553 1556 1558 1559 1561 1563 1564 1565 1567 1567 1568 1569 1569 1570 1571 1571 1572 1572 1572 1572 1572 1572 1572 1572 1571 1570 1569 1568 1567 1567
1512 1516 1519 1523 1526 1529 1533 1536 1539 1542 1545 1547 1550 1552 1554 1556 1558 1560 1561 1563 1564 1565 1566 1567 1568 1568 1569 1570 1571 1571 1571 1572 1572 1572 1572 1572 1571 1570 1570 1569 1568 1567 1566
1510 1513 1517 1520 1524 1527 1530 1534 1537 1540 1543 1546 1548 1550 1553 1554 1556 1558 1560 1561 1563 1564 1565 1566 1566 1567 1568 1569 1570 1570 1570 1571 1571 1571 1571 1571 1570 1569 1569 1568 1567 1566 1565
1507 1511 1515 1518 1522 1525 1529 1532 1535 1538 1541 1544 1546 1548 1550 1552 1554 1556 1558 1560 1561 1562 1564 1565 1565 1566 1567 1568 1568 1569 1569 1569 1570 1570 1570 1569 1569 1568 1568 1567 1565 1565 1564
1504 1508 1512 1516 1519 1523 1526 1530 1533 1536 1539 1541 1543 1546 1548 1550 1552 1554 1556 1558 1559 1561 1562 1563 1564 1565 1566 1566 1567 1568 1568 1568 1568 1568 1568 1568 1567 1567 1566 1565 1564 1563 1562
1503 1506 1510 1514 1517 1521 1524 1527 1531 1533 1536 1538 1541 1544 1546 1548 1550 1552 1554 1556 1557 1559 1560 1561 1562 1563 1564 1565 1566 1566 1566 1567 1567 1567 1567 1566 1566 1565 1564 1563 1562 1560 1559
1501 1505 1508 1511 1515 1518 1522 1525 1528 1530 1533 1536 1539 1541 1544 1546 1548 1550 1552 1554 1555 1557 1558 1559 1561 1562 1563 1563 1564 1565 1565 1565 1565 1564 1564 1564 1564 1563 1562 1561 1560 1558 1557
1500 1503 1506 1509 1513 1516 1519 1522 1525 1528 1531 1534 1537 1539 1542 1544 1546 1548 1550 1552 1553 1555 1556 1558 1559 1560 1561 1562 1562 1562 1563 1563 1562 1562 1562 1562 1561 1560 1560 1559 1557 1556 1555
1499 1502 1505 1508 1511 1514 1517 1520 1523 1526 1529 1532 1534 1536 1539 1541 1543 1546 1548 1549 1551 1553 1554 1555 1557 1558 1558 1559 1560 1560 1560 1560 1560 1560 1560 1559 1559 1558 1557 1556 1555 1553 1552
1498 1500 1503 1506 1509 1512 1515 1518 1521 1524 1526 1529 1531 1534 1536 1539 1541 1543 1545 1547 1548 1550 1551 1553 1554 1555 1556 1556 1557 1557 1557 1557 1557 1557 1557 1556 1556 1555 1554 1553 1552 1550 1549
1497 1499 1501 1504 1507 1510 1513 1516 1518 1521 1524 1526 1529 1531 1534 1536 1538 1540 1543 1544 1546 1548 1549 1550 1551 1552 1553 1554 1554 1554 1554 1554 1554 1554 1553 1553 1552 1552 1551 1549 1548 1547 1545
1495 1498 1500 1503 1505 1508 1510 1513 1516 1518 1521 1524 1526 1529 1531 1533 1535 1537 1540 1542 1544 1545 1547 1548 1549 1549 1551 1551 1551 1552 1552 1551 1551 1551 1550 1549 1549 1548 1547 1546 1544 1543 1542